OBJECT B (43828 NORAD) Tracking and Keplerian Element Data

This shows tracking and keplerian element data for the satellite.

Feedback or suggestion? Click here.




ElementValue
Catalog43828
NameOBJECT B
Epoch Orbit87
Epoch Day345.16062425
Epoch Year2018
RAAN215.0437
Inclination51.5884
Eccentricity0.0015669
Argument of Perigee84.2141
Mean Anonmoly276.3851
Mean Motion16.3708158
Decay Rate0.14738656
L11 43828U 18101B 18345.16062425 .14738656 12343-4 14256-2 0 9990
L22 43828 51.5884 215.0437 0015669 84.2141 276.3851 16.37081580 873

Live tracking and technical data element details for OBJECT B (NORAD 43828). OBJECT B can be tracked NOW for your location showing map with azimuth and elevation plus other details from your city location.

Track the satellite on the map from your city or location and see movement details for azimuth, elevation, latitude, longitude, range, height, and movement on the map or in text.







IsCatalogInMostPopularTable: catalog: 43828, numindb: 38
Update: records affected: 1



GetName: 43828 OBJECT B

Hit Count: updated at: Tue, 23 Apr 2019 20:58:59 GMT